Flag for U.S.A. Weather past 2 weeks in Port St. Lucie, Florida, U.S.A.

Now
66 °F

Clear.


Feels Like: 66 °F
Forecast: 66 / 84 °F
Wind: No wind

Location: Witham Field Airport


UV Index: 7 (High)

Visibility: 7 mi


Pressure: 29.99 "Hg

Humidity: 94%

Dew point: 64 °F

Location of Port St. LucieLocation

Historic Weather in Port St. Lucie

°F

Port St. Lucie temperature yesterday

Maximum temperature yesterday: 77 °F (at 12:47 PM)
Minimum temperature yesterday: 63 °F (at 4:35 AM)
Average temperature yesterday: 69 °F

Past Weeks' High & Low Weather Summary

 TemperatureHumidityPressure
High88 °F (Apr 15, 1:47 PM)100% (Apr 15, 4:35 AM)30.29 "Hg (Apr 15, 4:35 AM)
Low59 °F (Apr 10, 4:35 AM)19% (Apr 15, 4:47 PM)29.83 "Hg (Apr 15, 3:47 PM)
Average71 °F77%30.04 "Hg
* Reported Apr 9 7:47 AM — Apr 24 7:47 AM, Port St. Lucie, Weather by CustomWeather, © 2014

Note: Actual official high and low records may vary slightly from our data, if they occured in-between our weather recording intervals... More about our weather records

Advertising

Historic Weather Conditions — Data for Previous 24 hours

 ConditionsComfort  
Time TempWeatherWind HumidityBarometerVisibility
7:47 AM
Apr 24
66 °FClear.No wind94%29.99 "Hg7 mi
6:50 AM64 °FClear.No wind94%29.97 "Hg7 mi
6:15 AM63 °FClear.No wind100%29.96 "Hg10 mi
5:55 AM63 °FClear.No wind100%29.96 "Hg10 mi
5:35 AM64 °FClear.No wind94%29.95 "Hg10 mi
5:15 AM64 °FClear.No wind94%29.94 "Hg10 mi
4:55 AM64 °FClear.3 mph94%29.94 "Hg10 mi
4:35 AM64 °FClear.No wind94%29.95 "Hg10 mi
4:15 AM66 °FClear.No wind88%29.95 "Hg10 mi
3:55 AM66 °FClear.3 mph94%29.94 "Hg10 mi
3:35 AM66 °FClear.No wind94%29.95 "Hg10 mi
3:15 AM66 °FClear.No wind94%29.95 "Hg10 mi
2:55 AM68 °FClear.No wind88%29.95 "Hg10 mi
2:35 AM68 °FClear.3 mph94%29.95 "Hg10 mi
2:15 AM70 °FClear.3 mph88%29.95 "Hg10 mi
1:55 AM68 °FClear.No wind88%29.96 "Hg10 mi
1:35 AM70 °FClear.No wind88%29.96 "Hg10 mi
12:55 AM70 °FClear.No wind94%29.97 "Hg10 mi
12:35 AM70 °FClear.5 mph94%29.97 "Hg10 mi
12:15 AM70 °FClear.5 mph94%29.97 "Hg10 mi
11:55 PM
Apr 23
72 °FClear.3 mph88%29.97 "Hg10 mi
11:35 PM70 °FClear.3 mph94%29.97 "Hg10 mi
11:15 PM70 °FClear.3 mph94%29.96 "Hg10 mi
10:55 PM72 °FClear.5 mph88%29.96 "Hg10 mi
10:35 PM70 °FClear.No wind94%29.96 "Hg10 mi
10:15 PM70 °FClear.3 mph94%29.96 "Hg10 mi
9:55 PM70 °FClear.5 mph94%29.95 "Hg10 mi
9:35 PM70 °FClear.5 mph94%29.95 "Hg10 mi
9:15 PM70 °FClear.5 mph94%29.94 "Hg10 mi
8:55 PM72 °FClear.5 mph88%29.94 "Hg10 mi
8:35 PM72 °FSunny.5 mph88%29.93 "Hg10 mi
8:15 PM72 °FSunny.6 mph88%29.93 "Hg10 mi
6:47 PM75 °FPassing clouds.8 mph74%29.91 "Hg7 mi
5:47 PM77 °FPassing clouds.9 mph69%29.90 "Hg7 mi
4:47 PMN/APassing clouds.10 mphN/AN/A7 mi
3:47 PM75 °FPassing clouds.9 mph74%29.91 "Hg7 mi
2:47 PM75 °FPassing clouds.8 mph74%29.93 "Hg7 mi
1:47 PM77 °FPassing clouds.12 mph69%29.94 "Hg7 mi
12:47 PM77 °FPassing clouds.8 mph61%29.95 "Hg7 mi
11:47 AM75 °FPassing clouds.6 mph69%29.97 "Hg7 mi
10:47 AM72 °FScattered clouds.7 mph73%29.98 "Hg7 mi
9:47 AM70 °FPassing clouds.9 mph78%29.97 "Hg7 mi
Weather by CustomWeather, © 2014

See weather overview